#timestamp,LO_Frequency,Hit,StdDev 
1557835215.4,286046995.1,N
1557835235.2,286046999.1,N
1557835255.0,286046997.4,N
1557835255.9,286046997.4,N
1557835275.8,286046995.0,N
1557835295.6,286046997.1,N
1557835315.5,286046997.7,N
1557835335.3,286047000.3,N
1557835355.1,286047000.8,N
1557835375.9,286046999.1,N
1557835395.7,286046994.9,N
1557835415.5,286046996.0,N
1557835435.4,286046996.9,N
1557835455.2,286047002.6,N
1557835475.1,286047003.5,N
1557835476.0,286047003.5,N
1557835495.8,286047002.7,N
1557835515.6,286046999.0,N
1557835535.5,286047000.0,N
1557835555.3,286046999.3,N
1557835575.1,286046998.8,N
1557835595.9,286047004.3,N
1557835615.7,286047002.4,N
1557835635.6,286047004.3,N
1557835655.4,286047001.8,N
1557835675.2,286046999.9,N
1557835695.1,286046997.5,N
1557835696.0,286046997.5,N
1557835715.8,286046997.4,N
1557835735.7,286046994.4,N
1557835755.5,286046994.8,N
1557835775.3,286046992.1,N
1557835795.2,286046993.2,N
1557835815.9,286046990.6,N
1557835835.7,286046992.0,N
1557835855.6,286046988.9,N
1557835875.4,286046989.6,N
1557835895.3,286046984.7,Y
1557835915.1,286046984.4,P
1557835916.0,286046984.4,N
1557835935.8,286046984.0,N
1557835955.7,286046981.1,Y
1557835975.5,286046993.6,P
1557835995.3,286046995.6,N
1557836015.2,286046988.9,P
1557836035.0,286046993.9,N
1557836035.9,286046993.9,N
1557836055.8,286046987.0,Y
1557836075.6,286046993.8,P
1557836095.4,286046996.1,P
1557836115.3,286046996.8,N
1557836135.1,286046993.1,Y
1557836155.9,286046995.1,P
1557836175.7,286046993.4,P
1557836195.5,286046995.9,P
1557836215.4,286046993.8,Y
1557836235.2,286046999.2,P
1557836255.1,286046996.7,N
1557836256.0,286046996.7,N
1557836275.8,286046993.4,Y
1557836295.6,286046993.8,P
1557836315.5,286046995.9,N
1557836335.3,286046993.8,P
1557836355.2,286046993.3,Y
1557836375.9,286047000.1,P
1557836395.7,286047000.4,N
1557836415.6,286047003.1,N
1557836435.4,286047002.0,N
1557836455.2,286046998.7,N
1557836475.1,286046995.9,N
1557836476.0,286046995.9,N
1557836495.8,286046990.1,Y
1557836515.7,286046994.7,P
1557836535.5,286046993.0,P
1557836555.3,286046990.0,P
1557836575.2,286046989.6,Y
1557836595.0,286046991.9,P
1557836595.9,286046991.9,P
1557836615.8,286046992.0,P
1557836635.6,286046991.3,Y
1557836655.4,286046999.6,P
1557836675.3,286046997.6,N
1557836695.1,286046995.9,N
1557836715.9,286046995.3,N
1557836735.7,286046993.8,N
1557836755.5,286046991.9,Y
1557836775.4,286046998.1,P
1557836795.2,286046996.5,P
1557836815.0,286046999.4,N
1557836815.9,286046999.4,N
1557836835.8,286046996.5,N
1557836855.6,286046997.3,N
1557836875.5,286047000.6,N
1557836895.3,286046999.1,N
1557836915.1,286046998.0,N
1557836935.9,286046993.8,Y
1557836955.7,286046995.7,P
1557836975.5,286046997.6,N
1557836995.4,286046998.3,N
1557837015.2,286046998.8,N
1557837035.1,286047000.6,N
1557837036.0,286047000.6,N
1557837055.8,286046998.4,N
1557837075.6,286046997.0,N
1557837095.5,286046995.6,N
1557837115.3,286046993.0,Y
1557837135.2,286046994.7,P
1557837155.9,286046992.3,P
1557837175.7,286046989.2,P
1557837195.6,286046986.5,Y
1557837215.4,286046988.6,P
1557837235.2,286046990.2,P
1557837255.1,286046992.4,P
1557837256.0,286046992.4,Y
1557837275.8,286047001.6,P
1557837295.7,286047003.4,N
1557837315.5,286047010.5,N
1557837335.4,286047014.6,N
1557837355.2,286047014.5,N
1557837375.0,286047014.2,N
1557837375.9,286047014.2,N
1557837395.8,286047016.4,N
1557837415.6,286047015.2,N
1557837435.5,286047017.6,N
1557837455.3,286047017.3,N
1557837475.1,286047018.9,N
1557837495.9,286047022.9,N
1557837515.7,286047020.5,N
1557837535.6,286047020.0,N
1557837555.4,286047022.0,N
1557837575.2,286047021.0,N
1557837595.1,286047021.9,N
1557837596.0,286047021.9,N
1557837615.8,286047019.6,N
1557837635.6,286047017.8,N
1557837655.5,286047020.8,N
1557837675.3,286047021.0,N
1557837695.2,286047019.2,N
1557837715.9,286047022.4,Y
1557837735.7,286047007.3,P
1557837755.6,286047003.7,N
1557837775.4,286047005.9,N
1557837795.2,286047003.4,N
1557837815.1,286047004.4,N
1557837816.0,286047004.4,N
1557837835.8,286047008.0,N
1557837855.7,286047013.6,Y
1557837875.5,286047010.5,P
1557837895.3,286047010.0,P
1557837915.2,286047012.5,P
1557837935.0,286047009.6,Y
1557837935.9,286047009.6,P
1557837955.8,286046999.5,P
1557837975.6,286046999.3,N
1557837995.4,286047001.2,N
1557838015.3,286046996.6,N
1557838035.1,286046996.0,N
1557838055.8,286046991.6,N
1557838075.7,286046990.1,N
1557838095.5,286046989.1,N
1557838115.4,286046990.7,N
1557838135.2,286046988.7,N
1557838155.0,286046988.6,N
1557838155.9,286046988.6,N
1557838175.8,286046988.3,N
1557838195.6,286046991.1,N
1557838215.5,286046989.9,N
1557838235.3,286046986.8,N
1557838255.1,286046986.2,N
1557838275.9,286046981.1,N
1557838295.7,286046977.3,Y
1557838315.6,286046986.6,P
1557838335.4,286046989.9,P
1557838355.2,286046986.9,P
1557838375.1,286046988.1,Y
1557838376.0,286046988.1,P
1557838395.8,286046995.6,P
1557838415.6,286046992.2,N
1557838435.5,286046992.3,N
1557838455.3,286046996.1,N
1557838475.2,286046995.5,N
1557838495.9,286046995.9,N
1557838515.7,286046997.1,N
1557838535.6,286046997.8,N
1557838555.4,286046995.7,N
1557838575.2,286046999.3,N
1557838595.1,286046999.2,N
1557838596.0,286046999.2,N
1557838615.8,286046994.6,N
1557838635.7,286046989.1,Y
1557838655.5,286046993.9,P
1557838675.4,286046988.5,P
1557838695.2,286046986.9,P
1557838715.0,286046989.3,Y
1557838715.9,286046989.3,P
1557838735.8,286046991.9,P
1557838755.6,286046991.9,P
1557838775.4,286046994.3,Y
1557838795.3,286047000.2,P
